www.pogodaiklimat.ru

Погода и климат >> Архив погоды >> Австралия >> Северная территория >> Маяк Кейп-Дон


ПОГОДА на Маяке Кейп-Дон

  • Прогноз погоды на Маяке Кейп-Дон
  • Монитор погоды на Маяке Кейп-Дон

АРХИВ ПОГОДЫ на Маяке Кейп-Дон

Время (UTC), дата Ветер
(напр.,м/с)
 
Видим.   Явления Облачность Т
(С)
Тd
(С)
f
(%)
Тe
(С)
Тes
(С)
Комфортность P
(гПа)
Po
(гПа)
Тmin
(С)
Tmax
(С)
R
(мм)
R24
(мм)
S
(см)
17 18.06 Ю 4 н/о н/о +15.6 +7.9 60 +15 +15 1015.4 1010.3
20 18.06 ЮВ 2 н/о н/о +14.3 +5.4 55 +14 +14 1016.1 1011.0
23 18.06 ЮВ 4 н/о н/о +17.7 +1.7 34 +17 +17 1017.9 1012.7
02 19.06 ЮВ 6 н/о н/о +25.6 +0.3 19 +24 +24 комфорт 1016.3 1011.2 +12.7
05 19.06 ЮВ 6 н/о н/о +28.6 -1.5 14 +26 +26 жарко 1012.8 1007.7
08 19.06 ЮВ 5 н/о н/о +27.9 -3.0 13 +25 +25 комфорт 1012.5 1007.4
11 19.06 В 2 н/о н/о +15.9 +3.7 44 +16 +16 1014.2 1009.1
14 19.06 ЮВ 1 н/о н/о +13.9 +3.1 48 +15 +15 1015.2 1010.1 +30.1
17 19.06 ЮВ 4 н/о н/о +12.8 +1.8 47 +11 +11 1015.8 1010.7
20 19.06 Ю 3 н/о н/о +12.0 +1.6 49 +11 +11 1016.5 1011.4
23 19.06 ЮВ 5 н/о н/о +18.1 +1.2 32 +18 +18 1018.1 1012.9
02 20.06 ЮВ 7 н/о н/о +26.3 +0.9 19 +25 +25 комфорт 1016.6 1011.5 +10.4
05 20.06 ЮВ 6 н/о н/о +29.6 -1.7 13 +27 +27 жарко 1013.5 1008.4
08 20.06 ЮВ 5 н/о н/о +28.7 -2.4 13 +26 +26 жарко 1012.8 1007.7
11 20.06 штиль 0 н/о н/о +16.9 +6.7 51 +17 +17 1015.0 1009.9
14 20.06 В 2 н/о н/о +13.2 +5.6 60 +13 +13 1016.4 1011.3 +30.7
17 20.06 ЮВ 2 н/о н/о +12.5 +3.7 55 +12 +12 1016.5 1011.4
20 20.06 ЮВ 2 н/о н/о +12.3 +1.9 49 +12 +12 1016.3 1011.2
23 20.06 ЮВ 4 н/о н/о +15.7 +2.8 42 +15 +15 1017.7 1012.5
02 21.06 ЮВ 7 н/о н/о +26.1 +1.4 20 +25 +25 комфорт 1016.2 1011.1 +8.5
05 21.06 ЮВ 6 н/о н/о +29.5 -0.8 14 +27 +27 жарко 1012.5 1007.4
08 21.06 ЮВ 4 н/о н/о +28.4 +1.8 18 +26 +26 жарко 1012.1 1007.0
11 21.06 ЮВ 2 н/о н/о +18.0 +3.1 37 +19 +19 1014.2 1009.1
14 21.06 В 2 н/о н/о +15.2 +4.6 49 +15 +15 1015.0 1009.9 +30.1
17 21.06 ЮВ 4 н/о н/о +11.8 +4.1 59 +10 +10 1015.5 1010.4
20 21.06 ЮВ 3 н/о н/о +11.8 +2.3 52 +11 +11 1016.3 1011.2
23 21.06 ЮВ 4 н/о н/о +16.6 +2.2 38 +16 +16 1017.2 1012.1
02 22.06 ЮВ 6 н/о н/о +24.9 +3.0 24 +24 +24 комфорт 1016.1 1011.0 +11.0
05 22.06 ЮВ 5 н/о н/о +28.9 +3.0 19 +27 +27 жарко 1012.7 1007.6
08 22.06 Ю 5 н/о н/о +27.4 +1.8 19 +26 +26 жарко 1012.3 1007.2
11 22.06 ЮВ 3 н/о н/о +17.2 +3.5 40 +17 +17 1014.1 1009.0
14 22.06 ЮВ 3 н/о н/о +13.7 +4.6 54 +13 +13 1015.3 1010.2 +29.2
17 22.06 штиль 0 н/о н/о +9.4 +6.5 82 +9 +9 1015.5 1010.4
20 22.06 Ю 3 н/о н/о +10.6 +2.2 56 +9 +9 1015.8 1010.7
23 22.06 ЮВ 5 н/о н/о +15.7 -0.5 33 +15 +15 1017.0 1011.9
02 23.06 ЮВ 6 н/о н/о +24.9 -1.8 17 +23 +23 комфорт 1016.7 1011.6 +8.5
05 23.06 В 4 н/о н/о +29.8 -2.6 12 +27 +27 жарко 1013.4 1008.3
08 23.06 ЮВ 5 н/о н/о +28.6 -2.5 13 +26 +26 жарко 1012.9 1007.8
11 23.06 Ю 2 н/о н/о +17.8 -0.5 29 +19 +19 1015.0 1009.9
14 23.06 В 2 н/о н/о +14.7 +1.6 41 +15 +15 1016.1 1011.0 +30.9
17 23.06 Ю 2 н/о н/о +10.3 +1.2 53 +10 +10 1016.4 1011.3
20 23.06 Ю 2 н/о н/о +11.1 -3.4 36 +10 +10 1016.7 1011.6
23 23.06 Ю 1 н/о н/о +13.4 +0.4 41 +14 +14 1018.6 1013.4
02 24.06 ЮВ 6 н/о н/о +24.9 -6.4 12 +22 +22 комфорт 1018.1 1012.9 +5.8
05 24.06 ЮВ 5 н/о н/о +29.3 -6.8 9 +26 +26 жарко 1015.2 1010.1
08 24.06 ЮВ 4 н/о н/о +28.6 -6.0 10 +25 +25 комфорт 1015.2 1010.1
11 24.06 штиль 0 н/о н/о +14.6 +4.0 49 +15 +15 1016.9 1011.8
14 24.06 В 2 н/о н/о +12.6 +0.7 44 +12 +12 1017.6 1012.4 +30.5
17 24.06 В 2 н/о н/о +9.3 +2.4 62 +8 +8 1016.9 1011.8
20 24.06 Ю 2 н/о н/о +8.1 +0.1 57 +7 +7 1018.1 1012.9
23 24.06 штиль 0 н/о н/о +12.5 +3.5 54 +12 +12 1019.9 1014.7
02 25.06 ЮВ 6 н/о н/о +26.0 -5.6 12 +23 +23 комфорт 1018.6 1013.4 +4.7
05 25.06 ЮВ 6 н/о н/о +29.6 -5.2 10 +26 +26 жарко 1015.6 1010.5
08 25.06 Ю 5 н/о н/о +28.4 -3.7 12 +25 +25 комфорт 1015.2 1010.1
11 25.06 штиль 0 н/о н/о +15.1 +4.5 49 +15 +15 1016.8 1011.7
14 25.06 штиль 0 н/о н/о +10.8 +4.9 67 +10 +10 1017.3 1012.2 +31.0

 

Местоположение метеостанции Маяк Кейп-Дон (Северная территория, Австралия): широта -13.83 долгота 131.18 высота над уровнем моря 50 м.

В архиве по умолчанию представлена погода на Маяке Кейп-Дон за последнюю неделю. Архивные данные за месяц целиком и за предыдущие месяцы, начиная с января 2011 года, Вы можете получить, выбрав интересующий диапазон дат из раскрывающегося списка и нажав кнопку "Ввод!".


*Определитесь, кто Вы:
робот инопланетянин человек

Внимание! Время в таблицах - всемирное. Для получения местного времени необходимо прибавить поправку, которая равна 9.5 ч.

Смотрите также архив погоды в соседних городах и на ближайших метеорологических станциях:

Погода в Батчелоре (Северная территория, Австралия) (88 км)
Погода в Манбуллу Ксиро (Северная территория, Австралия) (131 км)
Погода в Милд Пойнт (Северная территория, Австралия) (137 км)
Погода в Тиндале (Северная территория, Австралия) (148 км)
Погода на Острове Дам-ин-Мирре (Северная территория, Австралия) (160 км)
Погода в Дарвине (Северная территория, Австралия) (161 км)
Погода в Порт Китс (Северная территория, Австралия) (184 км)
Погода в Пойнт Стьюарт (Северная территория, Австралия) (193 км)
Погода на Центральном плато Арнем (Северная территория, Австралия) (213 км)
Погода в Джаберу (Северная территория, Австралия) (227 км)

Пояснения к столбцам:

Ветер - указаны скорость ветра в м/с - средняя за 10 мин, порывы в срок и между сроками (в фигурных скобках) и направление, откуда дует ветер: С - северный, СВ - северо-восточный, В - восточный, ЮВ - юго-восточный, Ю - южный, ЮЗ - юго-западный, З - западный, СЗ - северо-западный.
Видимость - горизонтальная дальность видимости в метрах или километрах. При видимости от 1 до 10 км при отсутствии осадков обычно наблюдается дымка, при ухудшении видимости до 1 км и менее - туман. В сухую погоду видимость может ухудшаться дымом, пылью или мглою.
Явления - указаны атмосферные явления, наблюдавшиеся в срок или в последний час перед сроком; фигурными скобками обозначены явления, наблюдавшиеся между сроками (за 1-3 часа до срока); квадратными скобками обозначены град или гололедные отложения с указанием их диаметра в мм.
Облачность - указаны через наклонную черту общая и нижняя облачность в баллах и высота нижней границы облаков в метрах; квадратными скобками обозначены формы облаков: Ci - перистые, Cs - перисто-слоистые, Cc - перисто-кучевые, Ac - высококучевые, As - высокослоистые, Sc - слоисто-кучевые, Ns - слоисто-дождевые, Cu - кучевые, Cb - кучево-дождевые. Подробнее классификацию облаков см. в Атласе облаков (PDF).
T - Температура воздуха - температура, измеренная на высоте 2 м над землей.
Td - Температура точки росы - температура, при понижении до которой содержащийся в воздухе водяной пар достигнет насыщения.
f - Относительная влажность воздуха - влажноcть воздуха, измеренная на высоте 2 м над землей.
Te - Эффективная температура - температура, которую ощущает одетый по сезону человек в тени. Характеристика душности погоды. При расчете учитывается влияние влажности воздуха и скорости ветра на теплоощущения человека.
Tes - Эффективная температура на солнце - температура, которую ощущает человек, с поправкой на солнечный нагрев. Характеристика знойности погоды. Зависит от высоты солнца над горизонтом, облачности и скорости ветра. Ночью, в пасмурную погоду, а также при ветре 12 м/с и более поправка равна нулю.
P - Атмосферное давление - приведенное к уровню моря атмосферное давление.
Po - Атмосферное давление - измеренное на уровне метеостанции атмосферное давление.
Tmin - Минимальная температура - минимум температуры воздуха на высоте 2 м над землей.
Tmax - Максимальная температура - максимум температуры воздуха на высоте 2 м над землей.
R - Количество осадков - Количество выпавших осадков за период времени, мм. При наведении курсора мыши на число - период времени, за который выпало указанное количество осадков.
R24 - Количество осадков - Количество выпавших осадков за 24 часа, мм.
S - Снежный покров - Высота снежного покрова, см. При наведении курсора мыши на число - состояние снежного покрова и степень покрытия местности в баллах.